| time (UTC) | temp F | wind direction | speed MPH | gust MPH | rain 1hr in | rain 24hr in | rain mn in | humidity % | barometer mb |
| 20260506082116 | 47 | 227 | 3.0 | 4.0 | 0.00 | 0.00 | 0.00 | 85 | 1013.2 |
| 20260506081615 | 47 | 226 | 0.0 | 1.0 | 0.00 | 0.00 | 0.00 | 85 | 1013.3 |
| 20260506081112 | 47 | 105 | 2.0 | 3.0 | 0.00 | 0.00 | 0.00 | 85 | 1013.5 |
| 20260506080610 | 47 | 98 | 2.0 | 3.0 | 0.00 | 0.00 | 0.00 | 85 | 1013.7 |
| 20260506080106 | 47 | 275 | 1.0 | 1.0 | 0.00 | 0.00 | 0.00 | 85 | 1013.2 |
| 20260506073049 | 47 | 351 | 3.0 | 3.0 | 0.00 | 0.00 | 0.00 | 86 | 1012.4 |
| 20260506072547 | 47 | 74 | 3.0 | 5.0 | 0.00 | 0.00 | 0.00 | 85 | 1012.8 |
| 20260506072044 | 47 | 58 | 2.0 | 3.0 | 0.00 | 0.00 | 0.00 | 86 | 1012.7 |
| 20260506071542 | 47 | 189 | 3.0 | 4.0 | 0.00 | 0.00 | 0.00 | 85 | 1012.6 |
| 20260506071040 | 47 | 152 | 1.0 | 1.0 | 0.00 | 0.00 | 0.00 | 86 | 1012.7 |
| 20260506070536 | 47 | 211 | 1.0 | 1.0 | 0.00 | 0.00 | 0.00 | 85 | 1013.0 |
| 20260506062514 | 47 | 277 | 3.0 | 5.0 | 0.00 | 0.00 | 0.00 | 88 | 1012.8 |
| 20260506062011 | 47 | 96 | 7.0 | 11.0 | 0.00 | 0.00 | 0.00 | 90 | 1012.7 |
| 20260506061506 | 47 | 322 | 2.0 | 5.0 | 0.00 | 0.00 | 0.00 | 92 | 1012.7 |
| 20260506061004 | 47 | 282 | 0.0 | 1.0 | 0.00 | 0.00 | 0.00 | 92 | 1013.2 |
| 20260506060503 | 46 | 335 | 1.0 | 1.0 | 0.00 | 0.00 | 0.00 | 93 | 1013.5 |
| 20260506050931 | 47 | 260 | 1.0 | 1.0 | 0.00 | 0.00 | 0.00 | 91 | 1013.7 |
| 20260506050429 | 47 | 255 | 0.0 | 0.0 | 0.00 | 0.00 | 0.00 | 91 | 1013.5 |
| 20260506044919 | 47 | 226 | 0.0 | 1.0 | 0.00 | 0.85 | 0.85 | 91 | 1013.4 |
| 20260506044418 | 47 | 271 | 1.0 | 1.0 | 0.00 | 0.85 | 0.85 | 91 | 1013.2 |
| 20260506043914 | 47 | 289 | 0.0 | 0.0 | 0.00 | 0.85 | 0.85 | 91 | 1013.1 |
| 20260506043412 | 47 | 354 | 5.0 | 5.0 | 0.00 | 0.85 | 0.85 | 91 | 1013.1 |
| 20260506042909 | 47 | 256 | 0.0 | 0.0 | 0.00 | 0.85 | 0.85 | 91 | 1013.2 |
| 20260506042409 | 47 | 118 | 5.0 | 10.0 | 0.00 | 0.85 | 0.85 | 91 | 1013.0 |
| 20260506041906 | 47 | 231 | 0.0 | 1.0 | 0.00 | 0.85 | 0.85 | 91 | 1013.0 |
| 20260506041403 | 47 | 181 | 0.0 | 1.0 | 0.00 | 0.85 | 0.85 | 91 | 1013.0 |
| 20260506040900 | 47 | 347 | 3.0 | 5.0 | 0.00 | 0.85 | 0.85 | 91 | 1012.4 |
| 20260506040358 | 47 | 213 | 2.0 | 3.0 | 0.00 | 0.85 | 0.85 | 91 | 1012.5 |
| 20260506035854 | 47 | 277 | 2.0 | 3.0 | 0.00 | 0.85 | 0.85 | 90 | 1012.4 |
| 20260506035351 | 47 | 271 | 2.0 | 3.0 | 0.00 | 0.85 | 0.85 | 90 | 1012.4 |
| 20260506034849 | 47 | 267 | 2.0 | 5.0 | 0.00 | 0.85 | 0.85 | 90 | 1012.4 |
| 20260506034346 | 48 | 97 | 3.0 | 4.0 | 0.00 | 0.85 | 0.85 | 90 | 1012.3 |
| 20260506033842 | 48 | 168 | 4.0 | 4.0 | 0.00 | 0.85 | 0.85 | 90 | 1012.1 |
| 20260506033339 | 47 | 184 | 0.0 | 1.0 | 0.00 | 0.85 | 0.85 | 90 | 1012.3 |
| 20260506032836 | 47 | 18 | 3.0 | 3.0 | 0.00 | 0.85 | 0.85 | 90 | 1012.2 |
| 20260506032333 | 47 | 340 | 5.0 | 5.0 | 0.00 | 0.85 | 0.85 | 90 | 1012.1 |
| 20260506031830 | 47 | 324 | 3.0 | 4.0 | 0.00 | 0.85 | 0.85 | 91 | 1012.0 |
| 20260506031327 | 47 | 108 | 1.0 | 3.0 | 0.00 | 0.85 | 0.85 | 91 | 1011.7 |
| 20260506030825 | 47 | 50 | 3.0 | 5.0 | 0.00 | 0.85 | 0.85 | 91 | 1011.9 |
| 20260506030323 | 47 | 48 | 2.0 | 3.0 | 0.00 | 0.85 | 0.85 | 91 | 1011.7 |
| 20260506025819 | 47 | 245 | 3.0 | 5.0 | 0.00 | 0.85 | 0.85 | 91 | 1011.6 |
| 20260506025315 | 47 | 231 | 1.0 | 1.0 | 0.00 | 0.85 | 0.85 | 90 | 1011.9 |
| 20260506024813 | 47 | 24 | 2.0 | 3.0 | 0.00 | 0.85 | 0.85 | 90 | 1011.6 |
| 20260506024310 | 47 | 183 | 3.0 | 4.0 | 0.00 | 0.85 | 0.85 | 90 | 1011.6 |
| 20260506023806 | 47 | 354 | 4.0 | 5.0 | 0.00 | 0.85 | 0.85 | 90 | 1011.4 |
| 20260506023303 | 47 | 335 | 2.0 | 3.0 | 0.00 | 0.85 | 0.85 | 90 | 1011.3 |
| 20260506022759 | 47 | 303 | 2.0 | 3.0 | 0.00 | 0.85 | 0.85 | 90 | 1011.1 |
| 20260506022257 | 47 | 57 | 1.0 | 3.0 | 0.00 | 0.85 | 0.85 | 90 | 1010.9 |
| 20260506021755 | 47 | 342 | 2.0 | 4.0 | 0.00 | 0.85 | 0.85 | 90 | 1010.9 |
| 20260506021252 | 47 | 335 | 2.0 | 4.0 | 0.00 | 0.85 | 0.85 | 90 | 1010.9 |
| 20260506020748 | 47 | 305 | 1.0 | 3.0 | 0.00 | 0.85 | 0.85 | 90 | 1010.9 |
| 20260506020246 | 47 | 163 | 0.0 | 1.0 | 0.00 | 0.85 | 0.85 | 91 | 1010.7 |
| 20260506015744 | 47 | 58 | 2.0 | 4.0 | 0.00 | 0.85 | 0.85 | 91 | 1010.7 |
| 20260506015241 | 47 | 163 | 2.0 | 3.0 | 0.00 | 0.85 | 0.85 | 92 | 1010.8 |
| 20260506014738 | 47 | 107 | 2.0 | 3.0 | 0.00 | 0.85 | 0.85 | 91 | 1010.6 |
| 20260506014234 | 47 | 38 | 2.0 | 4.0 | 0.00 | 0.85 | 0.85 | 91 | 1010.8 |
| 20260506013732 | 47 | 336 | 2.0 | 3.0 | 0.00 | 0.85 | 0.85 | 91 | 1010.6 |
| 20260506013229 | 47 | 339 | 3.0 | 5.0 | 0.00 | 0.85 | 0.85 | 91 | 1010.5 |
| 20260506012725 | 47 | 21 | 4.0 | 4.0 | 0.00 | 0.85 | 0.85 | 92 | 1010.4 |
| 20260506012222 | 47 | 287 | 3.0 | 4.0 | 0.00 | 0.85 | 0.85 | 92 | 1010.2 |
| 20260506011719 | 47 | 250 | 1.0 | 1.0 | 0.00 | 0.85 | 0.85 | 92 | 1010.5 |
| 20260506011215 | 47 | 260 | 0.0 | 1.0 | 0.00 | 0.85 | 0.85 | 92 | 1010.1 |
| 20260506010714 | 47 | 249 | 3.0 | 4.0 | 0.00 | 0.85 | 0.85 | 92 | 1010.1 |
| 20260506010211 | 47 | 297 | 0.0 | 0.0 | 0.00 | 0.85 | 0.85 | 92 | 1010.4 |
| 20260506005708 | 47 | 212 | 1.0 | 1.0 | 0.00 | 0.85 | 0.85 | 92 | 1010.3 |
| 20260506005205 | 47 | 217 | 0.0 | 1.0 | 0.00 | 0.85 | 0.85 | 92 | 1010.0 |
| 20260506004700 | 47 | 281 | 5.0 | 8.0 | 0.00 | 0.85 | 0.85 | 92 | 1009.9 |
| 20260506004159 | 47 | 222 | 3.0 | 5.0 | 0.00 | 0.85 | 0.85 | 92 | 1010.0 |
| 20260506003654 | 48 | 323 | 2.0 | 3.0 | 0.00 | 0.85 | 0.85 | 91 | 1009.7 |
| 20260506003151 | 48 | 263 | 1.0 | 3.0 | 0.00 | 0.85 | 0.85 | 91 | 1009.9 |
| 20260506002646 | 48 | 319 | 3.0 | 5.0 | 0.00 | 0.85 | 0.85 | 90 | 1010.0 |
| 20260506002143 | 48 | 279 | 2.0 | 3.0 | 0.00 | 0.85 | 0.85 | 90 | 1010.0 |
| 20260506001638 | 48 | 132 | 8.0 | 10.0 | 0.00 | 0.85 | 0.85 | 90 | 1010.0 |
| 20260506001136 | 48 | 254 | 2.0 | 3.0 | 0.00 | 0.85 | 0.85 | 90 | 1009.7 |
| 20260506000633 | 48 | 87 | 2.0 | 3.0 | 0.00 | 0.85 | 0.85 | 89 | 1009.9 |
| 20260506000131 | 48 | 41 | 4.0 | 5.0 | 0.00 | 0.85 | 0.85 | 88 | 1010.0 |
| 20260505235629 | 48 | 62 | 3.0 | 4.0 | 0.00 | 0.85 | 0.85 | 88 | 1009.9 |
| 20260505235125 | 48 | 2 | 3.0 | 4.0 | 0.00 | 0.85 | 0.85 | 89 | 1009.9 |
| 20260505234622 | 48 | 47 | 6.0 | 10.0 | 0.00 | 0.85 | 0.85 | 88 | 1009.4 |
| 20260505234119 | 48 | 117 | 8.0 | 12.0 | 0.00 | 0.85 | 0.85 | 88 | 1009.6 |
| 20260505233617 | 48 | 254 | 0.0 | 1.0 | 0.00 | 0.85 | 0.85 | 88 | 1009.4 |
| 20260505233114 | 48 | 192 | 2.0 | 3.0 | 0.00 | 0.85 | 0.85 | 88 | 1009.5 |
| 20260505232612 | 48 | 64 | 7.0 | 11.0 | 0.00 | 0.85 | 0.85 | 87 | 1009.1 |
| 20260505232109 | 48 | 12 | 5.0 | 8.0 | 0.00 | 0.85 | 0.85 | 88 | 1009.1 |
| 20260505231606 | 49 | 184 | 3.0 | 5.0 | 0.00 | 0.85 | 0.85 | 87 | 1008.9 |
| 20260505231104 | 49 | 128 | 2.0 | 3.0 | 0.00 | 0.85 | 0.85 | 86 | 1009.0 |
| 20260505230602 | 49 | 196 | 2.0 | 3.0 | 0.00 | 0.85 | 0.85 | 86 | 1009.2 |
| 20260505230058 | 49 | 213 | 0.0 | 1.0 | 0.00 | 0.85 | 0.85 | 85 | 1009.0 |
| 20260505225555 | 49 | 341 | 5.0 | 7.0 | 0.00 | 0.85 | 0.85 | 85 | 1009.2 |
| 20260505225050 | 49 | 301 | 1.0 | 1.0 | 0.00 | 0.85 | 0.85 | 84 | 1009.0 |
| 20260505224548 | 49 | 248 | 1.0 | 1.0 | 0.00 | 0.85 | 0.85 | 84 | 1009.0 |
| 20260505224045 | 49 | 337 | 4.0 | 4.0 | 0.00 | 0.85 | 0.85 | 84 | 1009.0 |
| 20260505223542 | 50 | 283 | 2.0 | 4.0 | 0.00 | 0.85 | 0.85 | 85 | 1008.7 |
| 20260505223038 | 50 | 73 | 0.0 | 1.0 | 0.00 | 0.85 | 0.85 | 84 | 1008.9 |
| 20260505222534 | 50 | 308 | 2.0 | 3.0 | 0.00 | 0.85 | 0.85 | 84 | 1008.4 |
| 20260505222031 | 50 | 207 | 0.0 | 1.0 | 0.00 | 0.85 | 0.85 | 84 | 1008.4 |
| 20260505221528 | 50 | 335 | 3.0 | 4.0 | 0.00 | 0.85 | 0.85 | 83 | 1008.5 |
| 20260505221024 | 50 | 1 | 5.0 | 8.0 | 0.00 | 0.85 | 0.85 | 84 | 1008.4 |
| 20260505220522 | 50 | 60 | 2.0 | 4.0 | 0.00 | 0.85 | 0.85 | 84 | 1008.4 |
| 20260505220020 | 50 | 2 | 6.0 | 8.0 | 0.00 | 0.85 | 0.85 | 86 | 1008.5 |
| 20260505215518 | 50 | 174 | 4.0 | 5.0 | 0.00 | 0.85 | 0.85 | 85 | 1008.7 |
| 20260505215015 | 50 | 57 | 8.0 | 11.0 | 0.00 | 0.85 | 0.85 | 85 | 1008.7 |
| 20260505214513 | 50 | 227 | 3.0 | 4.0 | 0.00 | 0.85 | 0.85 | 86 | 1008.5 |
| 20260505214009 | 50 | 112 | 4.0 | 7.0 | 0.00 | 0.85 | 0.85 | 86 | 1008.4 |
| 20260505213508 | 50 | 305 | 1.0 | 1.0 | 0.00 | 0.85 | 0.85 | 87 | 1008.4 |
| 20260505213004 | 50 | 102 | 2.0 | 3.0 | 0.00 | 0.85 | 0.85 | 87 | 1008.2 |
| 20260505212500 | 50 | 71 | 6.0 | 8.0 | 0.00 | 0.85 | 0.85 | 85 | 1008.3 |
| 20260505211957 | 50 | 262 | 2.0 | 3.0 | 0.00 | 0.85 | 0.85 | 86 | 1008.3 |
| 20260505211454 | 50 | 287 | 4.0 | 5.0 | 0.00 | 0.85 | 0.85 | 87 | 1008.2 |
| 20260505210950 | 50 | 158 | 8.0 | 11.0 | 0.00 | 0.85 | 0.85 | 88 | 1008.2 |
| 20260505210448 | 50 | 43 | 11.0 | 15.0 | 0.00 | 0.85 | 0.85 | 89 | 1008.4 |
| 20260505205944 | 50 | 203 | 2.0 | 3.0 | 0.00 | 0.85 | 0.85 | 90 | 1008.3 |
| 20260505205443 | 50 | 49 | 2.0 | 4.0 | 0.00 | 0.85 | 0.85 | 90 | 1008.4 |
| 20260505204939 | 51 | 35 | 5.0 | 7.0 | 0.00 | 0.85 | 0.85 | 89 | 1008.3 |
| 20260505204437 | 51 | 304 | 4.0 | 4.0 | 0.00 | 0.85 | 0.85 | 88 | 1008.5 |
| 20260505203934 | 51 | 82 | 2.0 | 3.0 | 0.00 | 0.85 | 0.85 | 88 | 1008.4 |
| 20260505203431 | 51 | 322 | 1.0 | 3.0 | 0.00 | 0.85 | 0.85 | 88 | 1008.5 |
| 20260505202927 | 51 | 324 | 5.0 | 8.0 | 0.00 | 0.85 | 0.85 | 88 | 1008.5 |
| 20260505202423 | 51 | 251 | 5.0 | 7.0 | 0.00 | 0.85 | 0.85 | 88 | 1008.2 |
| 20260505201920 | 51 | 189 | 5.0 | 5.0 | 0.00 | 0.85 | 0.85 | 89 | 1008.0 |
| 20260505201417 | 51 | 280 | 5.0 | 7.0 | 0.00 | 0.85 | 0.85 | 89 | 1008.1 |
| 20260505200915 | 51 | 42 | 5.0 | 7.0 | 0.00 | 0.85 | 0.85 | 90 | 1008.2 |
| 20260505200412 | 51 | 18 | 5.0 | 7.0 | 0.00 | 0.85 | 0.85 | 90 | 1008.3 |
| 20260505195907 | 51 | 264 | 5.0 | 8.0 | 0.00 | 0.85 | 0.85 | 90 | 1008.3 |
| 20260505195405 | 52 | 263 | 0.0 | 1.0 | 0.00 | 0.85 | 0.85 | 91 | 1007.8 |
| 20260505194902 | 52 | 281 | 7.0 | 10.0 | 0.00 | 0.85 | 0.85 | 91 | 1008.0 |
| 20260505194400 | 52 | 126 | 2.0 | 3.0 | 0.00 | 0.85 | 0.85 | 91 | 1008.0 |
| 20260505193900 | 52 | 60 | 1.0 | 3.0 | 0.00 | 0.85 | 0.85 | 90 | 1008.1 |
| 20260505193358 | 52 | 263 | 3.0 | 4.0 | 0.00 | 0.85 | 0.85 | 89 | 1008.1 |
| 20260505192855 | 52 | 221 | 2.0 | 4.0 | 0.00 | 0.85 | 0.85 | 90 | 1008.1 |
| 20260505192354 | 52 | 290 | 3.0 | 7.0 | 0.00 | 0.85 | 0.85 | 89 | 1007.8 |
| 20260505191851 | 52 | 334 | 4.0 | 5.0 | 0.00 | 0.85 | 0.85 | 89 | 1007.9 |
| 20260505191349 | 53 | 296 | 3.0 | 5.0 | 0.00 | 0.85 | 0.85 | 89 | 1007.5 |
| 20260505190846 | 53 | 109 | 5.0 | 11.0 | 0.00 | 0.85 | 0.85 | 88 | 1007.5 |
| 20260505190341 | 53 | 199 | 3.0 | 5.0 | 0.00 | 0.85 | 0.85 | 88 | 1007.6 |
| 20260505185837 | 53 | 295 | 4.0 | 5.0 | 0.00 | 0.85 | 0.85 | 88 | 1007.5 |
| 20260505185334 | 53 | 235 | 1.0 | 1.0 | 0.00 | 0.85 | 0.85 | 88 | 1007.7 |
| 20260505184830 | 53 | 337 | 6.0 | 8.0 | 0.00 | 0.85 | 0.85 | 89 | 1007.4 |
| 20260505184327 | 53 | 242 | 0.0 | 1.0 | 0.00 | 0.85 | 0.85 | 90 | 1007.8 |
| 20260505183824 | 53 | 26 | 5.0 | 10.0 | 0.00 | 0.85 | 0.85 | 88 | 1007.8 |
| 20260505183321 | 53 | 222 | 2.0 | 3.0 | 0.00 | 0.85 | 0.85 | 89 | 1008.0 |
| 20260505182818 | 53 | 180 | 3.0 | 4.0 | 0.00 | 0.85 | 0.85 | 89 | 1007.7 |
| 20260505182314 | 54 | 8 | 6.0 | 7.0 | 0.00 | 0.85 | 0.85 | 89 | 1007.7 |
| 20260505181811 | 54 | 322 | 2.0 | 4.0 | 0.00 | 0.85 | 0.85 | 89 | 1007.5 |
| 20260505181309 | 54 | 294 | 3.0 | 5.0 | 0.00 | 0.85 | 0.85 | 89 | 1007.4 |
| 20260505180805 | 54 | 140 | 2.0 | 4.0 | 0.00 | 0.85 | 0.85 | 90 | 1007.2 |
| 20260505180301 | 54 | 29 | 4.0 | 5.0 | 0.05 | 0.85 | 0.85 | 90 | 1007.2 |
| 20260505175758 | 54 | 56 | 5.0 | 7.0 | 0.05 | 0.85 | 0.85 | 90 | 1006.9 |
| 20260505175254 | 54 | 124 | 5.0 | 5.0 | 0.00 | 0.84 | 0.84 | 90 | 1007.4 |
| 20260505174751 | 54 | 111 | 9.0 | 11.0 | 0.00 | 0.84 | 0.84 | 90 | 1007.1 |
| 20260505174248 | 54 | 123 | 5.0 | 8.0 | 0.00 | 0.84 | 0.84 | 90 | 1007.3 |
| 20260505173744 | 54 | 70 | 3.0 | 5.0 | 0.00 | 0.84 | 0.84 | 91 | 1007.2 |
| 20260505173241 | 54 | 266 | 2.0 | 3.0 | 0.00 | 0.84 | 0.84 | 91 | 1007.3 |
| 20260505172738 | 54 | 36 | 4.0 | 7.0 | 0.00 | 0.84 | 0.84 | 91 | 1007.1 |
| 20260505172235 | 54 | 108 | 3.0 | 4.0 | 0.00 | 0.84 | 0.84 | 92 | 1007.0 |
| 20260505171735 | 54 | 16 | 5.0 | 7.0 | 0.00 | 0.84 | 0.84 | 92 | 1006.9 |
| 20260505171232 | 54 | 256 | 5.0 | 8.0 | 0.00 | 0.84 | 0.84 | 92 | 1007.1 |
| 20260505170729 | 54 | 123 | 6.0 | 8.0 | 0.00 | 0.84 | 0.84 | 92 | 1006.9 |
| 20260505170226 | 54 | 283 | 3.0 | 4.0 | 0.00 | 0.84 | 0.84 | 92 | 1007.0 |
| 20260505165721 | 54 | 20 | 4.0 | 5.0 | 0.00 | 0.84 | 0.84 | 92 | 1007.0 |
| 20260505165217 | 55 | 268 | 3.0 | 3.0 | 0.00 | 0.84 | 0.84 | 93 | 1007.1 |
| 20260505164713 | 55 | 89 | 3.0 | 4.0 | 0.00 | 0.84 | 0.84 | 93 | 1006.8 |
| 20260505164210 | 55 | 47 | 7.0 | 10.0 | 0.00 | 0.84 | 0.84 | 93 | 1007.0 |
| 20260505163708 | 55 | 32 | 1.0 | 1.0 | 0.00 | 0.84 | 0.84 | 93 | 1006.8 |
| 20260505163206 | 55 | 31 | 3.0 | 4.0 | 0.00 | 0.84 | 0.84 | 93 | 1007.0 |
| 20260505162703 | 55 | 318 | 1.0 | 3.0 | 0.00 | 0.84 | 0.84 | 93 | 1006.9 |
| 20260505162201 | 55 | 223 | 2.0 | 4.0 | 0.00 | 0.84 | 0.84 | 93 | 1006.8 |
| 20260505161657 | 55 | 59 | 5.0 | 8.0 | 0.00 | 0.84 | 0.84 | 93 | 1006.9 |
| 20260505161154 | 55 | 44 | 2.0 | 5.0 | 0.00 | 0.84 | 0.84 | 93 | 1006.9 |
| 20260505160652 | 55 | 0 | 8.0 | 11.0 | 0.00 | 0.84 | 0.84 | 93 | 1006.6 |
| 20260505160150 | 56 | 348 | 4.0 | 10.0 | 0.00 | 0.84 | 0.84 | 95 | 1006.4 |
| 20260505153129 | 57 | 314 | 1.0 | 1.0 | 0.00 | 0.84 | 0.84 | 95 | 1006.3 |
| 20260505152625 | 57 | 284 | 3.0 | 4.0 | 0.00 | 0.84 | 0.84 | 95 | 1006.2 |
| 20260505152121 | 57 | 134 | 5.0 | 5.0 | 0.00 | 0.84 | 0.84 | 95 | 1006.2 |
| 20260505151617 | 58 | 71 | 0.0 | 1.0 | 0.00 | 0.84 | 0.84 | 95 | 1006.1 |
| 20260505151114 | 58 | 287 | 1.0 | 1.0 | 0.00 | 0.84 | 0.84 | 96 | 1006.1 |
| 20260505150610 | 58 | 231 | 0.0 | 1.0 | 0.00 | 0.84 | 0.84 | 96 | 1006.1 |
| 20260505150108 | 58 | 345 | 4.0 | 5.0 | 0.00 | 0.84 | 0.84 | 96 | 1005.9 |
| 20260505140536 | 60 | 81 | 1.0 | 1.0 | 0.00 | 0.84 | 0.84 | 99 | 1005.9 |
| 20260505124949 | 60 | 102 | 1.0 | 1.0 | 0.00 | 0.84 | 0.84 | 99 | 1005.7 |
| 20260505124446 | 60 | 78 | 0.0 | 0.0 | 0.00 | 0.84 | 0.84 | 99 | 1005.6 |
| 20260505123942 | 60 | 195 | 2.0 | 3.0 | 0.07 | 0.84 | 0.84 | 99 | 1005.6 |
| 20260505123439 | 60 | 18 | 1.0 | 1.0 | 0.07 | 0.84 | 0.84 | 99 | 1005.7 |
| 20260505122935 | 60 | 340 | 0.0 | 1.0 | 0.00 | 0.83 | 0.83 | 99 | 1005.6 |
| 20260505122432 | 60 | 265 | 1.0 | 1.0 | 0.00 | 0.83 | 0.83 | 99 | 1005.6 |
| 20260505121929 | 60 | 291 | 0.0 | 0.0 | 0.00 | 0.83 | 0.83 | 99 | 1005.3 |
| 20260505121426 | 60 | 64 | 2.0 | 4.0 | 0.05 | 0.83 | 0.83 | 99 | 1005.0 |
| 20260505120922 | 60 | 201 | 2.0 | 3.0 | 0.05 | 0.83 | 0.83 | 99 | 1005.2 |
| 20260505120418 | 60 | 239 | 0.0 | 0.0 | 0.00 | 0.82 | 0.82 | 99 | 1005.0 |
| 20260505115917 | 60 | 215 | 0.0 | 1.0 | 0.00 | 0.82 | 0.82 | 99 | 1005.0 |
| 20260505115414 | 60 | 305 | 0.0 | 0.0 | 0.00 | 0.82 | 0.82 | 99 | 1005.3 |
| 20260505114912 | 60 | 285 | 1.0 | 3.0 | 0.00 | 0.82 | 0.82 | 99 | 1004.9 |
| 20260505114408 | 60 | 104 | 4.0 | 7.0 | 0.00 | 0.82 | 0.82 | 99 | 1004.7 |
| 20260505113905 | 60 | 342 | 1.0 | 1.0 | 0.00 | 0.82 | 0.82 | 99 | 1004.7 |
| 20260505113402 | 60 | 292 | 1.0 | 1.0 | 0.00 | 0.82 | 0.82 | 99 | 1004.8 |
| 20260505112857 | 61 | 220 | 3.0 | 4.0 | 0.00 | 0.82 | 0.82 | 99 | 1004.7 |
| 20260505112355 | 60 | 7 | 1.0 | 1.0 | 0.00 | 0.82 | 0.82 | 99 | 1004.4 |
| 20260505111850 | 61 | 258 | 0.0 | 0.0 | 0.00 | 0.82 | 0.82 | 99 | 1004.4 |
| 20260505111346 | 61 | 313 | 1.0 | 1.0 | 0.00 | 0.82 | 0.82 | 99 | 1004.4 |
| 20260505110842 | 60 | 329 | 2.0 | 3.0 | 0.00 | 0.82 | 0.82 | 99 | 1004.5 |
| 20260505110340 | 61 | 273 | 1.0 | 1.0 | 0.00 | 0.82 | 0.82 | 99 | 1004.5 |
| 20260505101815 | 61 | 200 | 4.0 | 5.0 | 0.00 | 0.82 | 0.82 | 99 | 1004.4 |
| 20260505101310 | 61 | 204 | 2.0 | 3.0 | 0.00 | 0.82 | 0.82 | 99 | 1004.4 |
| 20260505100806 | 61 | 343 | 0.0 | 1.0 | 0.00 | 0.82 | 0.82 | 99 | 1004.5 |
| 20260505100303 | 61 | 202 | 3.0 | 3.0 | 0.00 | 0.82 | 0.82 | 99 | 1004.5 |
| 20260505095759 | 61 | 164 | 2.0 | 4.0 | 0.00 | 0.82 | 0.82 | 99 | 1004.5 |
| 20260505095257 | 61 | 172 | 2.0 | 3.0 | 0.00 | 0.82 | 0.82 | 99 | 1004.4 |
| 20260505094752 | 61 | 200 | 0.0 | 0.0 | 0.00 | 0.82 | 0.82 | 99 | 1004.6 |
| 20260505094249 | 61 | 205 | 4.0 | 4.0 | 0.00 | 0.82 | 0.82 | 99 | 1004.9 |
| 20260505093744 | 61 | 206 | 3.0 | 4.0 | 0.00 | 0.82 | 0.82 | 99 | 1005.0 |
| 20260505093242 | 61 | 208 | 2.0 | 3.0 | 0.07 | 0.82 | 0.82 | 99 | 1005.0 |
| 20260505092739 | 61 | 161 | 2.0 | 3.0 | 0.12 | 0.82 | 0.82 | 99 | 1005.0 |
| 20260505092238 | 61 | 183 | 3.0 | 3.0 | 0.05 | 0.81 | 0.81 | 99 | 1005.4 |
| 20260505091734 | 61 | 337 | 2.0 | 3.0 | 0.00 | 0.80 | 0.80 | 99 | 1005.4 |
| 20260505091233 | 61 | 270 | 2.0 | 3.0 | 0.00 | 0.80 | 0.80 | 98 | 1005.3 |
| 20260505090730 | 61 | 212 | 2.0 | 3.0 | 0.07 | 0.80 | 0.80 | 98 | 1005.3 |
| 20260505090228 | 61 | 146 | 1.0 | 1.0 | 0.07 | 0.80 | 0.80 | 98 | 1005.2 |
| 20260505085725 | 61 | 132 | 3.0 | 4.0 | 0.05 | 0.79 | 0.79 | 98 | 1005.2 |
| 20260505085223 | 61 | 202 | 2.0 | 3.0 | 0.12 | 0.79 | 0.79 | 98 | 1005.1 |
| 20260505084720 | 61 | 205 | 2.0 | 3.0 | 0.19 | 0.78 | 0.78 | 98 | 1004.9 |
| 20260505084219 | 61 | 52 | 1.0 | 4.0 | 0.12 | 0.77 | 0.77 | 98 | 1005.0 |
| 20260505083716 | 61 | 160 | 4.0 | 5.0 | 0.12 | 0.75 | 0.75 | 98 | 1005.1 |
| 20260505083213 | 61 | 239 | 0.0 | 1.0 | 0.12 | 0.75 | 0.75 | 98 | 1005.0 |
| 20260505082708 | 61 | 304 | 1.0 | 1.0 | 0.00 | 0.73 | 0.73 | 98 | 1005.4 |